UTTTUASK

Guest
Details From UTTT - Yuzhny
To UASK - Ust Kamenogorsk
Flight Number -
Tags Generated
Created
Modified
Stats Distance 764 nm / 1,415 km
Max Altitude 0 ft / 0 m
Waypoints 3
Social Downloads 0
Likes 0
Share VATSIM

Download

Looking for another format? Having issues loading an existing format? Contact us
Advertisement - Login to hide

Notes

Generated

Route

UTTT UASK UASK

ID Type Via Altitude Latitude Longitude Leg Dist Tot Dist Heading (true) Name
O UTTT APT - 0 ft / 0 m 41.25059˚ 69.25911˚ - 0 nm - -
UASK FIX - 0 ft / 0 m 50.03611˚ 82.49417˚ 764 nm 764 nm 42° / 51° -
O UASK APT - 0 ft / 0 m 50.03715˚ 82.49482˚ 0 nm 764 nm 22° / 22° -

Altitude Profile

Advertisement - Login to hide

Weather


0- 5 10 15 20 25 30 35+ Temperature / ° C

Clouds and Precipitation
Forecast for 2018-05-22 18:00 UTC. Updated 5 hours ago

Ground ~20,000 ft ~40,000 ft Winds

UTTT

Details ICAO UTTT (TAS)
Name Yuzhny
Region Tajikistan, Turkmenistan and Uzbekistan
Timezone Asia/Tashkent (UTC+5.0)
Stats Elevation 1,417 ft / 432 m (AMSL)
Location 41.255517° 69.281646°
Runways 2
Magnetic Variation 5.426° E

METAR

UTTT 222130Z 07006KT CAVOK 16/10 Q1017 R08R/CLRD70 NOSIG

Decode

TAF

TAF UTTT 221700Z 2218/2318 32010KT 7000 FEW060CB SCT100 PROB40 TEMPO 2218/2224 -TSRA SCT060CB

Decode

Departure Runways

ID Width Length Bearing (true) Bearing (mag) Surface Threshold Offset Overrun Length
08L 197 ft / 60 m 13,135 ft / 4,004 m 76.98° 71.55° Concrete 820 ft / 250 m 0 ft / 0 m
08R 148 ft / 45 m 12,824 ft / 3,909 m 76.99° 71.56° Asphalt 650 ft / 198 m 0 ft / 0 m
26L 148 ft / 45 m 12,824 ft / 3,909 m 257.02° 251.59° Asphalt 680 ft / 207 m 0 ft / 0 m
26R 197 ft / 60 m 13,135 ft / 4,004 m 257.02° 251.59° Concrete 820 ft / 250 m 0 ft / 0 m

UASK

Details ICAO UASK (UKK)
Name UST KAMENOGORSK
Region Kazakhstan and Kyrgyzstan
Timezone Asia/Almaty (UTC+6.0)
Stats Elevation 939 ft / 286 m (AMSL)
Location 50.034154° 82.499412°
Runways 2
Magnetic Variation 6.486° E

METAR

UASK 222100Z 25002MPS 140V310 9999 BKN040CB BKN090 18/07 Q1000 R30/090060 NOSIG RMK QFE725/0967

Decode

TAF

Not found

Destination Runways

ID Width Length Bearing (true) Bearing (mag) Surface Threshold Offset Overrun Length
12 138 ft / 42 m 8,223 ft / 2,507 m 130.67° 124.18° Asphalt 0 ft / 0 m 160 ft / 49 m
12L 200 ft / 61 m 6,078 ft / 1,853 m 130.78° 124.29° Grass 0 ft / 0 m 0 ft / 0 m
30 138 ft / 42 m 8,223 ft / 2,507 m 310.69° 304.20° Asphalt 0 ft / 0 m 160 ft / 49 m
30R 200 ft / 61 m 6,078 ft / 1,853 m 310.80° 304.31° Grass 0 ft / 0 m 0 ft / 0 m

Approach Navaids

Runway Type Ident Frequency Range Bearing (true) Bearing (mag) Slope Elevation
12 Localiser IUS 111.70 MHz 18 nm / 33 km 131.34° 124.85° - 939 ft / 286 m (AMSL)
12 Glidescope IUS 111.70 MHz 10 nm / 19 km 130.68° 124.19° 2.40° 939 ft / 286 m (AMSL)
30 Localiser ISI 109.70 MHz 18 nm / 33 km 309.95° 303.46° - 939 ft / 286 m (AMSL)
30 Glidescope ISI 109.70 MHz 10 nm / 19 km 310.68° 304.19° 3.00° 939 ft / 286 m (AMSL)